SCP
0 0 0 0 0 0 0 0 0 0 0 0 0 0 0 0 0 0 0 0 0 0 0 0 0 0 0 0 0 0 0 0 0 0 0 0 0 0 0 0 0 0 0
0 0 0 0 0 0 0 0 0 0 0 0 0 0 0 0 0 0 0 0 0 0 0 0 0 0 0 0 0 0 0 0 0 0 0 0 0 0 0 0 0 0 0
0 0 0 0 0 0 0 0 0 0 0 0 0 0 0 0 0 0 0 0 0 0 0 0 0 0 0 0 0 0 0 0 0 0 0 0 0 0 0 0 0 0 0
0 0 0 0 0 0 0 0 0 0 0 0 0 0 0 0 0 0 0 0 0 0 0 0 0 0 0 0 0 0 0 0 0 0 0 0 0 0 0 0 0 0 0
0 0 0 0 0 0 0 0 0 0 0 0 0 0 0 0 0 0 0 0 0 0 0 0 0 0 0 0 0 0 0 0 0 0 0 0 0 0 0 0 0 0 0
0 0 0 0 0 0 0 0 0 0 0 0 0 0 0 0 0 0 0 0 0 0 0 0 0 0 0 0 0 0 0 0 0 0 0 0 0 0 0 0 0 0 0
0 0 0 0 0 0 0 0 0 0 0 0 0 0 0 0 0 0 0 0 0 0 0 0 0 0 0 0 0 0 0 0 0 0 0 0 0 0 0 0 0 0 0
0 0 0 0 0 0 0 0 0 0 0 0 0 0 0 0 0 0 0 0 0 0 0 0 0 0 0 0 0 0 0 0 0 0 0 0 0 0 0 0 0 0 0
0 0 0 0 0 0 0 0 0 0 0 0 0 0 0 0 0 0 0 0 0 0 0 0 0 0 0 0 0 0 0 0 0 0 0 0 0 0 0 0 0 0 0
1 1 1 0 0 0 0 0 0 0 0 0 0 0 0 0 0 0 0 0 0 0 0 0 0 0 0 0 0 0 0 0 0 0 0 0 0 0 0 0 0 0 0
1 1 1 1 1 1 1 0 0 0 0 1 1 1 1 0 0 0 0 0 0 0 0 0 0 0 0 0 0 0 0 0 0 0 0 0 0 0 0 0 0 0 0
1 1 1 1 1 1 1 1 1 1 1 1 1 1 1 1 0 0 0 0 0 0 0 0 0 0 0 0 0 0 0 0 0 0 0 0 0 0 0 0 0 0 0
1 1 2 2 2 1 1 1 1 1 1 1 1 1 0 0 0 0 0 0 0 0 0 0 0 0 0 0 0 0 0 0 0 0 0 0 0 0 0 0 0 0 0
1 1 1 1 1 1 1 1 1 0 0 0 0 0 0 0 0 0 0 0 0 0 0 0 0 0 0 0 0 0 0 0 0 0 0 0 0 0 0 0 0 0 0
0 0 0 0 0 0 0 0 0 0 0 0 0 0 0 0 0 0 0 0 0 0 0 0 0 0 0 0 0 0 0 0 0 0 0 0 0 0 0 0 0 0 0
0 0 0 0 0 0 0 0 0 0 0 0 0 0 0 0 0 0 0 0 0 0 0 0 0 0 0 0 0 0 0 0 0 0 0 0 0 0 0 0 0 0 0
0 0 0 0 0 0 0 0 0 0 0 0 0 0 0 0 0 0 0 0 0 0 0 0 0 0 0 0 0 0 0 0 0 0 0 0 0 0 0 0 0 0 0
0 0 0 0 0 0 0 0 0 0 0 0 0 0 0 0 0 0 0 0 0 0 0 0 0 0 0 0 0 0 0 0 0 0 0 0 0 0 0 0 0 0 0
0 0 0 0 0 0 0 0 0 0 0 0 0 0 0 0 0 0 0 0 0 0 0 0 0 0 0 0 0 0 0 0 0 0 0 0 0 0 0 0 0 0 0
0 0 0 0 0 0 0 0 0 0 0 0 0 0 0 0 0 0 0 0 0 0 0 0 0 0 0 0 0 0 0 0 0 0 0 0 0 0 0 0 0 0 0
0 0 0 0 0 0 0 0 0 0 0 0 0 0 0 0 0 0 0 0 0 0 0 0 0 0 0 0 0 0 0 0 0 0 0 0 0 0 0 0 0 0 0
0 0 0 0 0 0 0 0 0 0 0 0 0 0 0 0 0 0 0 0 0 0 0 0 0 0 0 0 0 0 0 0 0 0 0 0 0 0 0 0 0 0 0
0 0 0 0 0 0 0 0 0 0 0 0 0 0 0 0 0 0 0 0 0 0 0 0 0 0 0 0 0 0 0 0 0 0 0 0 0 0 0 0 0 0 0
0 0 0 0 0 0 0 0 0 0 0 0 0 0 0 0 0 0 0 0 0 0 0 0 0 0 0 0 0 0 0 0 0 0 0 0 0 0 0 0 0 0 0
0 0 0 0 0 0 0 0 0 0 0 0 0 0 0 0 0 0 0 0 0 0 0 0 0 0 0 0 0 0 0 0 0 0 0 0 0 0 0 0 0 0 0
0 0 0 0 0 0 0 0 0 0 0 0 0 0 0 0 0 0 0 0 0 0 0 0 0 0 0 0 0 0 0 0 0 0 0 0 0 0 0 0 0 0 0
Wind_Speed
4 3 2 2 2 2 2 2 1 1 2 2 2 2 3 3 3 3 3 7 8 9 10 10 9 9 8 8 7 7 6 6 6 6 5 5 4 2 1 0 1 2 3
4 4 3 3 3 3 3 2 2 2 2 2 3 3 3 3 3 4 4 5 7 8 9 10 10 10 9 8 7 6 6 7 7 7 7 7 6 5 4 3 2 1 1
5 5 4 4 4 3 3 2 2 1 2 2 3 3 3 3 4 4 4 3 4 6 8 9 10 9 8 7 6 5 4 4 6 8 8 8 8 8 7 6 5 4 3
6 5 4 4 4 3 3 3 2 2 2 2 2 2 2 3 4 4 4 4 3 3 4 7 8 8 7 5 4 3 3 3 4 6 9 10 9 9 9 8 8 7 6
7 6 5 4 4 3 3 3 2 2 2 2 2 3 3 3 4 3 4 4 3 3 3 4 5 4 3 2 2 3 3 3 3 4 6 9 10 10 10 10 10 9 9
7 6 4 4 4 3 3 2 2 2 2 2 2 3 3 3 2 2 3 3 2 2 2 1 1 0 0 0 1 2 3 3 3 3 4 5 8 10 11 11 11 11 11
7 6 5 4 4 4 4 4 3 2 1 1 0 2 3 2 1 2 2 2 2 2 2 1 1 1 1 3 2 2 3 3 3 3 2 3 4 6 8 10 11 12 12
6 6 6 5 5 4 4 3 3 2 1 1 1 1 3 4 2 2 2 2 3 3 3 4 3 2 2 1 2 3 3 3 4 3 2 2 3 4 5 8 9 10 11
6 5 5 4 4 4 3 3 3 3 2 1 1 2 1 3 3 2 2 3 3 3 3 3 4 3 2 2 1 3 4 4 4 4 3 3 3 4 5 5 7 8 9
4 5 5 5 4 4 4 3 3 2 3 2 1 1 2 2 2 3 2 1 3 3 3 3 3 3 3 2 3 4 4 4 4 5 5 5 5 6 5 5 6 7 7
3 4 4 4 4 3 3 3 3 2 2 2 2 1 1 1 3 3 4 2 1 1 2 2 2 2 3 3 2 4 5 5 5 6 6 7 7 7 7 7 6 6 7
2 3 4 4 3 3 3 3 2 2 1 1 1 2 2 2 2 3 4 3 2 1 1 1 2 2 2 2 4 6 6 7 6 6 7 8 8 8 8 8 7 6 6
3 3 4 4 3 3 3 3 3 2 1 1 2 1 2 2 1 2 3 3 2 1 1 0 1 1 2 2 3 6 6 7 7 7 8 8 8 9 8 8 8 7 6
4 5 5 5 4 4 4 4 3 2 1 1 1 1 1 1 1 2 2 2 3 2 2 2 1 1 1 2 3 5 4 7 8 8 9 9 9 9 9 9 8 8 6
5 6 6 6 5 5 4 4 2 1 1 1 1 1 1 1 1 1 1 2 2 3 3 3 1 1 1 2 4 3 3 6 7 8 9 9 10 10 10 10 10 9 7
6 7 6 6 5 5 4 4 3 1 1 1 1 1 1 1 0 0 1 1 2 3 3 1 1 1 1 2 4 4 4 7 7 7 8 9 9 9 10 10 10 10 8
6 7 6 6 5 4 4 4 2 2 1 1 1 1 1 1 1 0 0 1 1 2 3 1 1 1 1 2 2 3 3 4 4 7 8 8 9 9 10 11 11 12 10
6 6 6 6 5 4 4 3 2 2 1 1 1 1 1 1 1 0 0 1 1 1 2 2 1 1 1 2 2 3 3 3 3 7 8 8 8 8 9 10 11 12 12
6 6 6 5 5 4 4 3 3 2 2 1 1 1 1 2 1 1 1 1 1 1 1 1 1 1 1 1 2 2 2 2 3 5 7 8 8 8 9 10 10 10 11
6 6 5 5 5 4 3 3 3 2 2 1 1 1 1 2 2 1 1 1 1 1 0 1 1 1 1 1 2 1 1 2 2 3 4 5 7 9 9 9 10 9 9
5 5 5 5 4 3 3 3 3 3 2 2 1 1 1 1 2 2 1 1 1 1 0 1 1 1 1 1 1 1 1 1 1 2 2 3 3 3 5 7 8 8 8
5 5 5 5 4 3 4 6 4 3 3 3 2 1 1 1 1 2 2 1 1 1 2 1 1 2 2 2 2 2 2 1 0 1 1 1 2 2 3 3 5 6 6
5 5 4 4 4 3 5 5 5 4 3 2 2 2 1 1 3 3 4 5 5 4 1 2 2 3 3 3 4 2 2 1 1 0 1 1 1 1 2 3 5 5 6
5 4 4 4 4 4 5 5 5 4 3 2 2 3 3 2 2 3 2 2 2 3 2 1 1 2 2 3 3 3 3 2 1 1 1 0 1 1 2 3 6 5 5
4 4 4 5 5 4 6 6 6 3 2 2 2 3 3 3 5 5 4 2 1 2 3 5 5 4 5 6 5 4 3 2 1 0 1 1 0 1 1 1 3 6 5
5 5 4 5 5 5 7 8 8 3 3 2 2 3 6 6 7 6 4 4 3 2 1 2 4 5 4 3 4 3 3 3 1 1 0 1 1 1 1 1 1 2 3
Wind_Direction
170 171 174 178 187 182 186 198 216 251 281 292 286 278 283 281 276 269 271 277 277 273 272 274 272 268 262 256 249 244 234 228 227 223 221 219 217 217 212 173 71 66 63
176 176 182 190 198 197 197 201 217 233 260 275 284 275 267 271 269 269 262 271 272 271 269 271 273 274 272 270 261 251 242 233 231 230 227 223 219 221 220 217 208 186 114
184 182 186 198 204 196 194 197 213 215 247 259 273 274 266 263 265 267 267 261 267 270 268 271 274 277 276 273 270 264 260 248 238 233 229 225 221 220 220 219 216 211 198
188 184 190 204 196 181 180 186 190 206 239 249 263 271 267 270 271 268 267 265 260 262 269 271 274 276 279 277 280 286 283 273 263 249 237 229 224 222 220 218 216 215 211
189 184 194 198 180 174 179 183 178 187 221 246 258 266 268 267 272 279 279 277 268 261 258 270 269 267 270 275 295 316 316 307 289 276 258 241 232 226 223 221 218 215 214
188 185 188 187 171 166 174 175 181 186 208 235 266 277 273 274 280 287 293 297 293 286 272 267 290 334 2 112 339 340 343 336 322 302 281 264 247 237 230 227 223 219 216
184 183 184 178 173 177 183 177 170 187 215 186 299 311 307 304 320 326 339 353 0 4 18 24 38 48 43 51 36 14 356 348 339 332 306 284 270 254 242 236 232 225 220
182 185 183 180 175 172 173 174 168 164 189 151 154 328 327 336 349 12 23 28 21 27 33 34 40 48 49 39 40 35 14 3 354 342 328 306 285 273 262 248 240 232 226
182 178 177 171 169 170 177 177 169 170 188 184 174 179 224 270 306 327 26 30 24 31 29 29 36 34 46 41 23 28 31 22 11 5 1 349 325 295 276 270 252 243 234
174 169 165 164 166 166 165 164 158 161 166 195 207 216 219 213 254 307 325 11 31 35 26 26 33 32 36 37 39 42 44 38 31 19 18 15 7 354 333 296 281 259 250
162 159 158 155 155 155 151 144 144 152 168 187 195 193 219 230 223 239 277 297 341 25 30 27 37 35 32 34 34 42 51 48 41 30 28 24 15 2 347 334 314 286 265
139 141 133 134 137 137 137 136 132 141 153 188 204 199 204 214 217 226 253 261 261 249 39 33 40 38 37 36 43 48 53 55 46 33 29 25 17 7 356 347 327 309 283
158 149 131 127 122 120 119 121 120 126 141 180 207 218 223 230 220 223 250 267 261 239 194 59 31 37 52 41 40 45 50 57 51 43 37 32 27 19 10 3 357 346 323
152 141 132 123 119 116 112 106 105 111 133 167 204 210 223 236 228 223 233 255 273 249 215 206 79 48 51 47 52 51 49 60 58 52 44 38 35 27 19 13 7 3 354
134 134 132 125 121 115 112 112 110 115 127 162 189 209 213 217 226 239 242 232 247 262 247 190 168 95 69 67 57 48 44 62 62 60 53 47 38 31 25 22 20 14 10
133 133 127 123 120 114 114 111 113 128 147 168 174 189 195 183 190 245 251 251 243 252 258 142 148 134 99 92 74 59 52 60 58 62 58 49 40 36 32 28 24 21 19
132 132 130 127 122 117 112 111 120 130 143 151 146 172 173 150 160 244 276 261 257 251 255 168 112 113 115 108 78 64 57 45 39 56 57 51 43 39 38 35 32 29 29
128 128 128 124 124 120 116 120 126 123 140 164 175 166 178 154 160 204 252 260 263 265 241 213 164 142 125 122 106 85 61 53 40 47 53 52 46 39 38 39 38 37 37
126 124 124 125 125 125 123 127 135 133 132 148 179 192 191 171 189 203 224 256 272 276 253 195 164 128 111 109 99 79 68 42 41 37 44 44 43 41 42 43 44 43 43
132 132 129 131 132 133 133 134 132 128 124 124 144 166 172 182 197 199 210 254 271 267 223 155 142 131 122 108 113 117 95 44 32 21 32 35 37 42 41 43 44 44 48
136 135 131 130 131 135 148 150 147 148 152 148 137 132 159 175 193 187 180 208 202 198 174 164 154 141 151 148 154 133 132 80 48 24 14 21 19 25 23 21 32 42 51
136 136 142 146 151 161 173 172 162 159 166 170 174 157 116 95 100 99 94 108 150 176 193 184 181 184 183 168 137 136 127 117 223 16 35 17 22 29 7 355 20 43 53
150 150 156 159 167 186 193 190 179 161 168 179 186 182 171 134 99 84 73 56 41 38 119 178 187 197 183 179 155 141 138 144 168 14 48 26 14 20 357 354 16 53 63
161 165 170 171 174 203 209 203 186 151 159 181 194 191 184 172 167 151 127 86 47 24 37 81 165 180 169 154 152 147 139 114 89 39 70 118 4 357 350 349 16 50 63
170 172 173 177 184 207 214 205 173 146 167 194 202 198 194 196 211 187 156 148 105 7 49 96 110 117 129 141 138 114 117 110 139 166 43 118 51 342 341 351 6 28 45
179 174 180 185 189 202 216 211 186 160 179 199 209 217 219 213 220 204 169 172 191 209 115 75 69 62 58 82 118 129 143 136 151 208 188 118 90 43 11 355 9 8 18